Simultaneous Nadir Overpasses (SNOs) Predictions

Prediction of SNOs between FY3D and AQUA Satellite Orbit:

Table of predicted SNOs for the next 14.0 days since TLE Epoch: 7/6/2019
Index Date (FY3D) Time (FY3D) Lat,Lon (FY3D) SZA (FY3D ) Date (AQUA) Time (AQUA) Lat,Lon (AQUA) SZA (AQUA ) Distance(km) Time Diff (sec)
1 07/06/2019 02:03:45 69.89, 16.00 81.95 07/06/2019 02:03:57 69.88, 15.95 81.96 2.19 12
2 07/06/2019 02:53:42 -72.46,-172.25 100.86 07/06/2019 02:52:38 -72.45,-172.30 100.79 1.47 64
3 07/08/2019 18:20:17 69.62, 131.49 82.54 07/08/2019 18:20:30 69.62, 131.47 82.54 0.86 13
4 07/08/2019 19:10:14 -72.20, -56.87 100.28 07/08/2019 19:09:11 -72.20, -56.87 100.22 0.06 63
5 07/11/2019 10:36:47 69.40,-112.94 83.12 07/11/2019 10:37:01 69.40,-112.94 83.10 0.08 14
6 07/11/2019 11:26:44 -71.99, 58.62 99.70 07/11/2019 11:25:42 -72.00, 58.65 99.65 1.03 62
7 07/14/2019 02:53:17 69.24, 2.72 83.68 07/14/2019 02:53:32 69.24, 2.73 83.66 0.56 15
8 07/14/2019 03:43:12 -71.94, 174.40 99.25 07/14/2019 03:42:11 -71.95, 174.44 99.21 1.58 61
9 07/16/2019 19:09:44 69.24, 118.60 84.11 07/16/2019 19:10:00 69.24, 118.61 84.09 0.64 16
10 07/16/2019 19:59:40 -71.88, -69.82 98.76 07/16/2019 19:58:40 -71.89, -69.78 98.72 1.65 60
11 07/19/2019 11:26:11 69.23,-125.53 84.58 07/19/2019 11:26:28 69.23,-125.52 84.56 0.32 17




NCC Satellite Simultaneous Nadir Overpasses (SNOs) Prediction Service
